STARLINK-36176

Last updated on Fri Dec 19 2025 00:02:09 GMT+0000 (Coordinated Universal Time)

1 67026U 25293Z 25351.83335648 -.01204027 45805-3 -24929-2 0 9999 2 67026 69.9926 308.9841 0004096 267.4545 154.4983 15.99003192 2385
UTC large
Height (km)
Speed (km/s)
/
Latitude / Longitude
Inclination (degrees)
Orbital Period (minutes)
Azimuth
Elevation
Range (km)
Doppler Factor

Next 0 passes for location: London (51.5072 / 0.1276)

Sorry there are no passes over London.